Simultaneous Nadir Overpasses (SNOs) Predictions

Prediction of SNOs between AURA and NPP Satellite Orbit:

Table of predicted SNOs for the next 14.0 days since TLE Epoch: 5/17/2014
Index Date (AURA) Time (AURA) Lat,Lon (AURA) SZA (AURA ) Date (NPP) Time (NPP) Lat,Lon (NPP) SZA (NPP ) Distance(km) Time Diff (sec)
1 05/19/2014 08:08:42 -77.35, 123.63 104.36 05/19/2014 08:08:36 -77.36, 123.74 104.38 3.07 6
2 05/19/2014 08:57:58 77.79, -66.89 75.09 05/19/2014 08:59:10 77.79, -66.88 75.03 0.56 72
3 05/21/2014 23:36:01 76.64, 69.24 75.97 05/21/2014 23:35:06 76.63, 69.19 76.02 1.38 55
4 05/22/2014 00:25:14 -77.32,-120.61 104.86 05/22/2014 00:25:36 -77.31,-120.67 104.86 1.57 22
5 05/24/2014 15:52:26 76.97,-173.72 75.09 05/24/2014 15:51:57 76.98,-173.66 75.09 1.58 29
6 05/24/2014 16:41:40 -77.60, -3.63 105.69 05/24/2014 16:42:28 -77.60, -3.57 105.74 1.62 48
7 05/27/2014 08:08:56 77.10, -57.39 74.49 05/27/2014 08:08:53 77.09, -57.40 74.50 0.04 3
8 05/27/2014 08:58:06 -77.90, 113.53 106.50 05/27/2014 08:59:20 -77.88, 113.57 106.57 2.03 74
9 05/29/2014 23:36:17 -76.42,-111.56 105.11 05/29/2014 23:35:22 -76.41,-111.64 105.04 2.25 55




NCC Satellite Simultaneous Nadir Overpasses (SNOs) Prediction Service
